Weather History for Rochelle, IL

Change the Weather History Date:

Tuesday, September 24, 2013

  Actual Average (KRFD) Record (KRFD)
Temperature  
Mean Temperature 58 °F 60 °F  
Max Temperature 72 °F 72 °F 92 °F (1920)
Min Temperature 45 °F 49 °F 28 °F (1976)
Degree Days  
Heating Degree Days 6 6  
Month to date heating degree days 72  
Since 1 July heating degree days 86  
Cooling Degree Days 0 1  
Month to date cooling degree days 78  
Year to date cooling degree days 805  
Growing Degree Days 8 (Base 50)    
Moisture  
Dew Point 48 °F    
Average Humidity 72    
Maximum Humidity 93    
Minimum Humidity 40    
Precipitation  
Precipitation 0.00 in 0.11 in 3.26 in (1986)
Month to date precipitation 2.73  
Year to date precipitation 28.39  
Snow  
Snow 0.00 in 0.00 in 0.00 in ()
Month to date snowfall 0.0  
Since 1 July snowfall 0.0  
Since 1 September snowfall 0.0  
Snow Depth -    
Sea Level Pressure  
Sea Level Pressure 29.99 in    
Wind  
Wind Speed 7 mph (ESE)    
Max Wind Speed 12 mph    
Max Gust Speed 18 mph    
Visibility 10 miles    
Events      
T = Trace of Precipitation, MM = Missing Value Source: NWS Daily Summary

Daily Weather History Graph

Daily Weather History Graph

Search for Another Location

Airport:

Trip Planner

Search our weather history database for the weather conditions in past years. The results will help you decide how hot, cold, wet, or windy it might be!

Date:

Astronomy

Sep. 24, 2013 Rise Set
Actual Time 6:46 AM CDT 6:49 PM CDT
Civil Twilight 6:18 AM CDT 7:17 PM CDT
Nautical Twilight 5:45 AM CDT 7:49 PM CDT
Astronomical Twilight 5:12 AM CDT 8:22 PM CDT
Moon 10:02 PM CDT (9/24) 12:05 PM CDT (9/24)
Length of Visible Light 12h 59m
Length of Day
12h 03m
Waning Gibbous, 73% of the Moon is Illuminated
Sep 24
Waning Gibbous
Sep 26
Last Quarter
Oct 4
New
Oct 11
First Quarter
Oct 18
Full

Hourly Weather History & Observations

Time (CDT) Temp. Windchill Dew Point Humidity Pressure Visibility Wind Dir Wind Speed Gust Speed Precip Events Conditions
12:15 AM 50.2 °F - 48.0 °F 92% 30.03 in 7.0 mi East 5.8 mph - N/A   Clear
12:35 AM 49.5 °F - 47.5 °F 93% 30.03 in 7.0 mi ESE 5.8 mph - N/A   Clear
12:55 AM 48.7 °F - 46.6 °F 92% 30.03 in 10.0 mi ESE 4.6 mph - N/A   Clear
1:15 AM 49.5 °F - 47.3 °F 92% 30.03 in 10.0 mi ESE 5.8 mph - N/A   Clear
1:35 AM 50.4 °F - 47.3 °F 89% 30.03 in 10.0 mi ESE 5.8 mph - N/A   Clear
1:55 AM 50.4 °F - 47.3 °F 89% 30.03 in 10.0 mi ESE 6.9 mph - N/A   Clear
2:35 AM 50.2 °F - 46.8 °F 88% 30.03 in 10.0 mi ESE 8.1 mph - N/A   Clear
2:55 AM 50.0 °F - 46.4 °F 87% 30.03 in 10.0 mi ESE 6.9 mph - N/A   Clear
3:15 AM 49.5 °F - 46.0 °F 88% 30.03 in 10.0 mi SE 6.9 mph - N/A   Clear
3:35 AM 49.1 °F - 45.7 °F 88% 30.04 in 10.0 mi ESE 6.9 mph - N/A   Clear
3:55 AM 48.4 °F - 45.5 °F 90% 30.05 in 10.0 mi SE 5.8 mph - N/A   Clear
4:15 AM 48.2 °F - 45.1 °F 89% 30.04 in 10.0 mi ESE 5.8 mph - N/A   Clear
4:35 AM 47.7 °F - 45.0 °F 90% 30.04 in 10.0 mi ESE 5.8 mph - N/A   Clear
4:55 AM 47.5 °F - 44.8 °F 90% 30.04 in 10.0 mi ESE 5.8 mph - N/A   Clear
5:15 AM 47.3 °F - 44.6 °F 90% 30.04 in 10.0 mi ESE 4.6 mph - N/A   Clear
5:35 AM 45.7 °F 42.7 °F 43.7 °F 93% 30.04 in 10.0 mi ESE 5.8 mph - N/A   Clear
5:55 AM 46.0 °F 43.9 °F 44.2 °F 93% 30.04 in 10.0 mi ESE 4.6 mph - N/A   Clear
6:15 AM 45.9 °F 43.6 °F 43.9 °F 93% 30.04 in 10.0 mi ESE 4.6 mph - N/A   Clear
6:35 AM 45.9 °F 43.6 °F 44.1 °F 93% 30.04 in 10.0 mi ESE 4.6 mph - N/A   Clear
6:55 AM 46.2 °F 44.1 °F 44.2 °F 93% 30.04 in 10.0 mi ESE 4.6 mph - N/A   Clear
7:15 AM 47.3 °F - 45.1 °F 92% 30.04 in 10.0 mi ESE 4.6 mph - N/A   Clear
7:35 AM 48.6 °F - 45.9 °F 90% 30.04 in 10.0 mi ESE 4.6 mph - N/A   Clear
7:55 AM 50.2 °F - 46.8 °F 88% 30.04 in 10.0 mi SE 5.8 mph - N/A   Clear
8:15 AM 51.6 °F - 47.3 °F 85% 30.04 in 10.0 mi ESE 9.2 mph - N/A   Clear
8:35 AM 52.9 °F - 47.5 °F 82% 30.04 in 10.0 mi SE 8.1 mph - N/A   Clear
8:55 AM 54.1 °F - 47.7 °F 79% 30.03 in 10.0 mi ESE 8.1 mph - N/A   Clear
9:15 AM 55.9 °F - 48.4 °F 76% 30.03 in 10.0 mi ESE 8.1 mph - N/A   Clear
9:35 AM 58.1 °F - 49.1 °F 72% 30.03 in 10.0 mi ESE 9.2 mph - N/A   Clear
9:55 AM 60.6 °F - 49.6 °F 67% 30.03 in 10.0 mi SE 6.9 mph - N/A   Clear
10:15 AM 61.9 °F - 49.8 °F 65% 30.02 in 10.0 mi ESE 8.1 mph - N/A   Clear
10:35 AM 63.1 °F - 50.4 °F 63% 30.02 in 10.0 mi ESE 8.1 mph - N/A   Clear
10:55 AM 64.8 °F - 50.0 °F 59% 30.02 in 10.0 mi SE 6.9 mph - N/A   Clear
11:15 AM 66.0 °F - 49.8 °F 56% 30.02 in 10.0 mi SE 10.4 mph - N/A   Clear
11:35 AM 67.1 °F - 49.6 °F 53% 30.01 in 10.0 mi ESE 6.9 mph - N/A   Clear
11:55 AM 68.0 °F - 48.9 °F 50% 30.00 in 10.0 mi ESE 11.5 mph - N/A   Clear
12:15 PM 68.7 °F - 48.4 °F 48% 30.00 in 10.0 mi East 10.4 mph 16.1 mph N/A   Clear
12:55 PM 69.4 °F - 48.2 °F 47% 29.99 in 10.0 mi SE 9.2 mph 18.4 mph N/A   Clear
1:15 PM 70.2 °F - 48.0 °F 45% 29.99 in 10.0 mi East 8.1 mph 16.1 mph N/A   Clear
1:35 PM 70.7 °F - 48.6 °F 45% 29.98 in 10.0 mi ESE 5.8 mph - N/A   Clear
1:55 PM 71.6 °F - 48.4 °F 44% 29.97 in 10.0 mi ESE 11.5 mph - N/A   Clear
2:15 PM 71.6 °F - 48.4 °F 44% 29.96 in 10.0 mi East 9.2 mph - N/A   Clear
2:35 PM 71.6 °F - 46.6 °F 41% 29.96 in 10.0 mi East 3.5 mph - N/A   Clear
2:55 PM 72.3 °F - 47.1 °F 41% 29.95 in 10.0 mi SE 4.6 mph - N/A   Clear
3:15 PM 72.5 °F - 46.8 °F 40% 29.95 in 10.0 mi SSE 5.8 mph - N/A   Clear
3:35 PM 72.5 °F - 48.6 °F 43% 29.94 in 10.0 mi East 6.9 mph - N/A   Clear
3:55 PM 72.5 °F - 48.0 °F 42% 29.92 in 10.0 mi ESE 9.2 mph - N/A   Clear
4:15 PM 72.5 °F - 46.9 °F 40% 29.93 in 10.0 mi East 10.4 mph - N/A   Clear
4:35 PM 71.8 °F - 47.1 °F 41% 29.93 in 10.0 mi ESE 9.2 mph - N/A   Clear
4:55 PM 71.6 °F - 47.7 °F 43% 29.94 in 10.0 mi East 9.2 mph - N/A   Clear
5:15 PM 70.7 °F - 47.5 °F 44% 29.93 in 10.0 mi East 6.9 mph - N/A   Clear
5:35 PM 70.2 °F - 47.5 °F 44% 29.94 in 10.0 mi East 6.9 mph - N/A   Clear
5:55 PM 68.9 °F - 48.4 °F 48% 29.94 in 10.0 mi East 5.8 mph - N/A   Clear
6:15 PM 66.6 °F - 49.5 °F 54% 29.94 in 10.0 mi East 5.8 mph - N/A   Clear
6:35 PM 64.6 °F - 49.1 °F 57% 29.94 in 10.0 mi East 8.1 mph - N/A   Clear
6:55 PM 62.8 °F - 49.1 °F 61% 29.94 in 10.0 mi East 9.2 mph - N/A   Clear
7:15 PM 61.3 °F - 49.1 °F 64% 29.94 in 10.0 mi East 9.2 mph - N/A   Clear
7:35 PM 59.4 °F - 49.5 °F 70% 29.94 in 10.0 mi ENE 10.4 mph - N/A   Clear
7:55 PM 58.5 °F - 49.8 °F 73% 29.94 in 10.0 mi ENE 9.2 mph - N/A   Clear
8:15 PM 57.6 °F - 49.6 °F 75% 29.95 in 10.0 mi ENE 10.4 mph - N/A   Clear
8:35 PM 57.0 °F - 49.6 °F 76% 29.95 in 10.0 mi ENE 9.2 mph - N/A   Clear
8:55 PM 56.3 °F - 49.6 °F 78% 29.95 in 10.0 mi ENE 9.2 mph - N/A   Clear
9:15 PM 55.0 °F - 49.6 °F 82% 29.95 in 10.0 mi ENE 9.2 mph - N/A   Clear
9:35 PM 54.1 °F - 49.8 °F 85% 29.95 in 10.0 mi ENE 8.1 mph - N/A   Clear
9:55 PM 53.6 °F - 49.6 °F 86% 29.95 in 10.0 mi ENE 8.1 mph - N/A   Clear
10:15 PM 53.4 °F - 49.6 °F 87% 29.95 in 10.0 mi ENE 6.9 mph - N/A   Clear
10:35 PM 52.9 °F - 49.5 °F 88% 29.95 in 10.0 mi ENE 5.8 mph - N/A   Clear
10:55 PM 51.8 °F - 49.1 °F 90% 29.95 in 10.0 mi NE 5.8 mph - N/A   Clear
11:15 PM 51.8 °F - 49.1 °F 90% 29.95 in 10.0 mi NE 4.6 mph - N/A   Clear
11:35 PM 50.9 °F - 48.6 °F 92% 29.96 in 10.0 mi NE 3.5 mph - N/A   Clear
11:55 PM 50.4 °F - 48.2 °F 92% 29.96 in 7.0 mi NE 5.8 mph - N/A   Clear